[[{"header":{"parameterUnit":"m.s-1","parameterCategory":1,"la1":30.2991,"la2":30.254,"lo1":-89.0895,"lo2":-89.0444,"dx":0.0017,"dy":0.0017,"nx":28,"ny":28,"refTime":"2022-11-05T15:00:00:Z","depth":0,"parameterNumber":2,"parameterNumberName":"U-component_of_WINDS"},"data":[0,0,0,0,0,0,0,0,0,0,0,0,0,0,0,0,0,0,0,0,0,0,0,0,0,0,0,0,0,0,0,0,0,0,0,0,0,0,0,0,0,0,0,0,0,0,0,0,0,0,0,0,0,0,0,0,0,0,-3.107,-3.1071,0,-3.1174,-3.1175,-3.1176,-3.118,-3.1179,-3.1178,-3.1177,-3.1283,-3.1287,-3.129,0,0,0,0,0,0,0,0,0,0,0,0,0,-3.0873,-3.0877,-3.107,-3.1071,-3.1072,-3.1174,-3.1175,-3.1177,-3.118,-3.1179,-3.1177,-3.1176,-3.1281,-3.1286,-3.1291,0,0,0,0,0,0,0,0,0,0,0,0,0,-3.0966,-3.0878,-3.1069,-3.1086,-3.1089,-3.1174,-3.1175,-3.1177,-3.1181,-3.1179,-3.1177,-3.1175,-3.128,-3.1286,-3.1292,-3.1366,0,0,-3.131,-3.1312,0,0,0,0,0,0,0,0,-3.0961,-3.0973,-3.1083,-3.1085,-3.1088,-3.1162,-3.1145,-3.124,-3.1181,-3.1146,-3.1177,-3.1174,-3.1244,-3.1253,-3.1277,-3.1371,-3.1375,-3.131,-3.1314,-3.1317,-3.1318,0,0,0,0,0,0,0,-3.0954,-3.0969,-3.1111,-3.1084,-3.1088,-3.1089,-3.11,-3.1163,-3.1204,-3.1149,-3.1149,-3.1162,-3.1245,-3.1271,-3.1279,-3.1377,-3.131,-3.1315,-3.1319,-3.1322,-3.1538,-3.154,0,0,0,0,0,0,-3.0945,-3.0963,-3.1108,-3.1114,-3.1019,-3.1094,-3.1106,-3.114,-3.1204,-3.1211,-3.1163,-3.1161,-3.1261,-3.1272,-3.1283,-3.1373,-3.1316,-3.1322,-3.1326,-3.1535,-3.1538,-3.154,0,0,0,0,0,0,-3.094,-3.0958,-3.1103,-3.1039,-3.1058,-3.1099,-3.1137,-3.1143,-3.1169,-3.1214,-3.1222,-3.1182,-3.126,-3.1274,-3.1345,-3.1377,-3.1325,-3.133,-3.1533,-3.1536,-3.1539,-3.1555,0,0,0,0,0,0,-3.0935,-3.0956,-3.0985,-3.104,-3.1061,-3.1164,-3.114,-3.1147,-3.1179,-3.1178,-3.1234,-3.1241,-3.126,-3.1336,-3.1351,-3.1384,-3.1335,-3.153,-3.1534,-3.1538,-3.1552,-3.1559,-3.1564,0,0,0,0,0,-3.0928,-3.0985,-3.0986,-3.1003,-3.1098,-3.1166,-3.1178,-3.1199,-3.1182,-3.1211,-3.124,-3.1239,-3.1372,-3.1343,-3.136,-3.1396,-3.1528,-3.1533,-3.1538,-3.1549,-3.1557,-3.1564,0,0,0,0,0,0,-3.0932,-3.0992,-3.0994,-3.1071,-3.1113,-3.1166,-3.1204,-3.1207,-3.1255,-3.1252,-3.1275,-3.1288,-3.1358,-3.1384,-3.1352,-3.1471,-3.1448,-3.1456,-3.1451,-3.1459,-3.1465,-3.1456,-3.134,0,0,0,0,0,-3.0942,-3.0993,-3.1043,-3.1106,-3.1127,-3.1162,-3.1192,-3.1205,-3.1249,-3.1267,-3.1302,-3.1345,-3.1396,-3.1429,-3.1479,-3.1557,-3.1568,-3.159,-3.1596,-3.16,-3.1607,-3.1649,-3.1659,-3.1556,-3.1556,-3.1556,0,0,-3.0963,-3.1002,-3.1033,-3.1108,-3.1142,-3.1193,-3.1177,-3.1232,-3.127,-3.1275,-3.1344,-3.1371,-3.1421,-3.1495,-3.153,-3.1519,-3.1638,-3.1607,-3.161,-3.1614,-3.1655,-3.1665,-3.1673,-3.1559,-3.1559,-3.1558,0,0,-3.1027,-3.1063,-3.1118,-3.1153,-3.1206,-3.1229,-3.1242,-3.1295,-3.1313,-3.1383,-3.1388,-3.1434,-3.1522,-3.1557,-3.1586,-3.1665,-3.1665,-3.1681,-3.1712,-3.1753,-3.1761,-3.1768,-3.1795,-3.1804,-3.1687,-3.1687,-3.1687,0,-3.1046,-3.1124,-3.1147,-3.1202,-3.1234,-3.1242,-3.1299,-3.1332,-3.1397,-3.142,-3.1407,-3.1518,-3.1552,-3.1635,-3.1654,-3.1678,-3.1693,-3.1673,-3.1758,-3.1766,-3.1773,-3.1798,-3.1809,-3.1689,-3.1689,-3.1689,-3.1688,0,-3.1145,-3.1199,-3.1238,-3.1301,-3.1338,-3.1394,-3.1424,-3.1459,-3.1469,-3.1493,-3.1564,-3.1606,-3.1664,-3.1685,-3.1695,-3.1769,-3.176,-3.1753,-3.173,-3.1783,-3.1808,-3.1818,-3.1691,-3.169,-3.169,-3.169,0,0,-3.1213,-3.1289,-3.1302,-3.1331,-3.139,-3.1432,-3.1488,-3.1545,-3.1574,-3.162,-3.1667,-3.1742,-3.1735,-3.1769,-3.1783,-3.1819,-3.1877,-3.1807,-3.1809,-3.1818,-3.196,-3.1964,-3.1975,-3.1879,-3.1881,-3.1883,-3.1955,0,-3.1282,-3.1381,-3.1404,-3.1489,-3.1539,-3.1548,-3.1597,-3.1638,-3.1663,-3.1709,-3.1736,-3.1788,-3.1776,-3.1796,-3.1833,-3.1863,-3.1906,-3.1858,-3.1922,-3.1924,-3.1907,-3.1988,-3.1992,-3.2059,-3.1965,-3.1967,-3.1968,0,-3.1375,-3.1423,-3.1514,-3.1566,-3.1588,-3.1631,-3.1685,-3.1729,-3.1776,-3.1792,-3.1829,-3.184,-3.1899,-3.1874,-3.1955,-3.1922,-3.195,-3.1968,-3.1972,-3.1977,-3.1948,-3.1994,-3.2081,-3.209,-3.1984,-3.1983,-3.1982,0,-3.1414,-3.1501,-3.1567,-3.1591,-3.1654,-3.1684,-3.1712,-3.1757,-3.179,-3.1838,-3.1859,-3.1913,-3.1942,-3.1984,-3.2009,-3.1989,-3.2087,-3.2065,-3.2101,-3.21,-3.2119,-3.2117,-3.221,-3.214,-3.214,-3.214,-3.214,0,-3.1488,-3.1542,-3.1585,-3.1624,-3.1686,-3.1712,-3.1772,-3.18,-3.184,-3.1885,-3.1897,-3.1939,-3.1971,-3.2018,-3.2038,-3.2101,-3.2114,-3.2128,-3.2132,-3.2126,-3.2124,-3.2143,-3.2138,-3.2143,-3.2142,-3.2141,-3.2141,0,-3.154,-3.1571,-3.1643,-3.1697,-3.1711,-3.1754,-3.18,-3.1839,-3.1865,-3.1922,-3.1937,-3.1977,-3.2032,-3.2062,-3.2132,-3.2145,-3.2216,-3.2218,-3.2199,-3.2201,-3.2234,-3.223,-3.2341,-3.2356,-3.2278,-3.2279,-3.2279,0,-3.1584,-3.1627,-3.1685,-3.1717,-3.1745,-3.1795,-3.1829,-3.1856,-3.1891,-3.1948,-3.198,-3.2037,-3.2083,-3.2171,-3.2206,-3.226,-3.2262,-3.2298,-3.227,-3.2262,-3.2261,-3.2257,-3.2261,-3.2302,-3.2302,-3.2303,-3.2304,0,-3.1659,-3.1672,-3.172,-3.1774,-3.1814,-3.1858,-3.1901,-3.1926,-3.196,-3.1999,-3.2056,-3.2092,-3.2163,-3.2218,-3.2275,-3.2303,-3.2309,-3.2312,-3.2323,-3.2316,-3.2302,-3.2309,-3.221,-3.2309,-3.2308,-3.2308,-3.2308,-3.2308,-3.1708,-3.1746,-3.1793,-3.1846,-3.1881,-3.1921,-3.1961,-3.1991,-3.2039,-3.2099,-3.2113,-3.2173,-3.2219,-3.2295,-3.2325,-3.2373,-3.2365,-3.2381,-3.2385,-3.2388,-3.2389,-3.2297,-3.2383,-3.2383,-3.2383,-3.2383,-3.2383,0,-3.1782,-3.1813,-3.1861,-3.1921,-3.1963,-3.1966,-3.2014,-3.2049,-3.2102,-3.2145,-3.219,-3.2255,-3.231,-3.2349,-3.2405,-3.2435,-3.2439,-3.2448,-3.2445,-3.2451,-3.2393,-3.2377,-3.2444,-3.2444,-3.2444,-3.2444,-3.2444,-3.2444,-3.1825,-3.1888,-3.1907,-3.1989,-3.2019,-3.2078,-3.2105,-3.2142,-3.2177,-3.2249,-3.2294,-3.232,-3.2362,-3.242,-3.247,-3.248,-3.2499,-3.2508,-3.2518,-3.2462,-3.2456,-3.2449,-3.2435,-3.2512,-3.2512,-3.2573,-3.2573,-3.2574]},{"header":{"parameterUnit":"m.s-1","parameterCategory":1,"la1":30.2991,"la2":30.254,"lo1":-89.0895,"lo2":-89.0444,"dx":0.0017,"dy":0.0017,"nx":28,"ny":28,"refTime":"2022-11-05T15:00:00:Z","depth":0,"parameterNumber":3,"parameterNumberName":"V-component_of_WINDS"},"data":[0,0,0,0,0,0,0,0,0,0,0,0,0,0,0,0,0,0,0,0,0,0,0,0,0,0,0,0,0,0,0,0,0,0,0,0,0,0,0,0,0,0,0,0,0,0,0,0,0,0,0,0,0,0,0,0,0,0,2.3817,2.3819,0,2.3959,2.3961,2.3963,2.401,2.4009,2.4009,2.4008,2.4149,2.4153,2.4158,0,0,0,0,0,0,0,0,0,0,0,0,0,2.3584,2.3588,2.3817,2.3819,2.382,2.3959,2.3961,2.3963,2.401,2.4009,2.4009,2.4008,2.4148,2.4153,2.4158,0,0,0,0,0,0,0,0,0,0,0,0,0,2.3701,2.3589,2.3817,2.3861,2.3866,2.3959,2.3961,2.3963,2.401,2.4009,2.4008,2.4008,2.4146,2.4152,2.4159,2.4216,0,0,2.4179,2.4181,0,0,0,0,0,0,0,0,2.3694,2.371,2.3852,2.3858,2.3864,2.3966,2.3931,2.4048,2.401,2.3955,2.4008,2.4007,2.4089,2.41,2.4128,2.4223,2.4229,2.4179,2.4183,2.4186,2.4188,0,0,0,0,0,0,0,2.3686,2.3704,2.3873,2.3854,2.3862,2.3873,2.3888,2.3953,2.4025,2.396,2.3964,2.398,2.4092,2.4122,2.4132,2.4231,2.4179,2.4185,2.4189,2.4191,2.4383,2.4385,0,0,0,0,0,0,2.3671,2.3697,2.3869,2.3877,2.3775,2.3878,2.3895,2.3934,2.4025,2.4038,2.3981,2.3982,2.4111,2.4124,2.4137,2.4213,2.4186,2.4192,2.4196,2.4382,2.4384,2.4385,0,0,0,0,0,0,2.3666,2.3686,2.3863,2.3788,2.3812,2.3883,2.3926,2.3937,2.3968,2.404,2.4053,2.3999,2.4111,2.4128,2.4197,2.4218,2.4195,2.4201,2.4381,2.4383,2.4384,2.4363,0,0,0,0,0,0,2.3659,2.3684,2.3707,2.3788,2.3815,2.3921,2.3927,2.3941,2.3979,2.3982,2.4061,2.4073,2.4112,2.4188,2.4204,2.4227,2.4206,2.4379,2.4382,2.4384,2.4362,2.4364,2.4366,0,0,0,0,0,2.365,2.3693,2.3708,2.3728,2.3846,2.3922,2.3938,2.3983,2.3981,2.4005,2.4052,2.407,2.4213,2.4194,2.4213,2.4238,2.4378,2.4381,2.4384,2.4362,2.4364,2.4366,0,0,0,0,0,0,2.361,2.3705,2.3722,2.3792,2.3849,2.393,2.3961,2.3984,2.4041,2.4041,2.4094,2.4111,2.4177,2.4214,2.4191,2.43,2.4297,2.4303,2.4274,2.4276,2.4278,2.4268,2.4211,0,0,0,0,0,2.3609,2.3665,2.3744,2.3799,2.3827,2.3889,2.3924,2.3955,2.4015,2.4039,2.4091,2.4148,2.4206,2.4243,2.43,2.4368,2.4387,2.4395,2.4396,2.4397,2.4403,2.4444,2.4449,2.4394,2.4394,2.4394,0,0,2.3608,2.3667,2.3698,2.3793,2.384,2.3896,2.3909,2.3967,2.4009,2.4047,2.4117,2.4157,2.4224,2.4294,2.4327,2.4327,2.4422,2.4401,2.4401,2.4406,2.4447,2.4452,2.4457,2.4396,2.4396,2.4395,0,0,2.3636,2.3685,2.3738,2.3787,2.386,2.3901,2.3914,2.3992,2.4021,2.4093,2.4124,2.4174,2.4272,2.432,2.4356,2.4405,2.4425,2.4422,2.4431,2.4471,2.4475,2.4479,2.4498,2.4505,2.4427,2.4427,2.4427,0,2.3625,2.3712,2.3762,2.382,2.3861,2.39,2.3954,2.3998,2.4085,2.4113,2.4112,2.4239,2.4286,2.4369,2.4381,2.4409,2.4426,2.4414,2.447,2.4475,2.448,2.4499,2.4506,2.4426,2.4426,2.4427,2.4427,0,2.3696,2.3756,2.379,2.3876,2.3921,2.3976,2.4034,2.4073,2.41,2.4142,2.4215,2.4274,2.4346,2.4367,2.4393,2.4454,2.4453,2.446,2.4458,2.4483,2.4503,2.451,2.4425,2.4426,2.4426,2.4426,0,0,2.3701,2.3817,2.3828,2.3869,2.3954,2.4001,2.4058,2.4131,2.4164,2.4223,2.4273,2.4357,2.4366,2.4408,2.444,2.4474,2.4512,2.4479,2.4481,2.4484,2.4586,2.4581,2.4589,2.4526,2.4527,2.4529,2.4581,0,2.3741,2.3848,2.3895,2.398,2.4037,2.4077,2.4127,2.4185,2.4226,2.4279,2.4324,2.4384,2.439,2.4416,2.4452,2.45,2.4534,2.4497,2.4574,2.4576,2.4557,2.4598,2.4592,2.4639,2.4589,2.459,2.4591,0,2.3801,2.3864,2.3955,2.4037,2.4062,2.4107,2.4178,2.4229,2.4295,2.4323,2.4371,2.4402,2.4465,2.4458,2.4545,2.4519,2.4553,2.4582,2.4585,2.4595,2.4586,2.461,2.4655,2.4662,2.4603,2.4602,2.4601,0,2.3798,2.3905,2.3974,2.4008,2.4103,2.4134,2.4175,2.4241,2.4282,2.4344,2.4372,2.4439,2.4476,2.4527,2.4576,2.4566,2.4659,2.4656,2.4684,2.4683,2.4703,2.4701,2.4755,2.4722,2.4722,2.4722,2.4722,0,2.3838,2.3893,2.3975,2.4017,2.4081,2.4135,2.4195,2.4239,2.4298,2.435,2.4387,2.4435,2.4495,2.4551,2.4589,2.4657,2.4672,2.4697,2.4706,2.4694,2.4691,2.4718,2.4717,2.4724,2.4723,2.4723,2.4723,0,2.3845,2.3902,2.3981,2.4066,2.4089,2.4132,2.4205,2.4248,2.4292,2.4357,2.4375,2.4443,2.4511,2.4565,2.4652,2.4678,2.475,2.4759,2.4728,2.4733,2.476,2.4757,2.4833,2.4847,2.4803,2.4804,2.4804,0,2.3868,2.3912,2.4003,2.4042,2.4083,2.4144,2.4188,2.4243,2.4286,2.4367,2.4401,2.4472,2.4531,2.4637,2.4694,2.4761,2.4774,2.4796,2.4784,2.4772,2.4777,2.4775,2.478,2.4798,2.4798,2.4798,2.4798,0,2.3903,2.393,2.3992,2.4064,2.4116,2.4175,2.4235,2.4264,2.433,2.4377,2.4448,2.4495,2.4586,2.4656,2.473,2.4772,2.4797,2.4802,2.4813,2.4801,2.4782,2.4795,2.4733,2.48,2.48,2.48,2.4799,2.4799,2.392,2.3962,2.4034,2.4102,2.4154,2.421,2.4256,2.4306,2.4367,2.4447,2.4476,2.4549,2.4617,2.4719,2.4762,2.482,2.4821,2.4836,2.484,2.4843,2.4843,2.4772,2.4833,2.4833,2.4833,2.4833,2.4833,0,2.3959,2.4008,2.407,2.4155,2.4209,2.423,2.4298,2.4341,2.4406,2.4468,2.4527,2.461,2.4679,2.4742,2.4814,2.4849,2.4862,2.4866,2.4864,2.4874,2.4836,2.4821,2.4854,2.4854,2.4854,2.4854,2.4854,2.4854,2.3985,2.4058,2.4094,2.4193,2.4242,2.4316,2.4353,2.4406,2.4456,2.4547,2.4606,2.4647,2.471,2.4788,2.4852,2.4869,2.4894,2.4896,2.4915,2.4879,2.4876,2.4874,2.486,2.49,2.49,2.4949,2.4949,2.495]}]]